Location: Newark
(40.9833°N, 0.0333°W)
Time: 02:26:08
(UTC+00:00)

Altair - Pass Details

Date: 02 November 2020
Orbit: 1502 x 1682 km, 47.2° (Epoch: 02 December)

Event Time Altitude Azimuth Distance (km) Brightness Sun altitude
Rises 12:06:03 0° 291° (WNW) 4,799 10.0 33.8°
Reaches altitude 10° 12:10:21 10° 274° (W) 3,843 9.7 33.7°
Maximum altitude 12:16:29 19° 235° (SW) 3,232 10.1 33.5°
Drops below altitude 10° 12:22:44 10° 195° (SSW) 3,907 11.1 33.3°
Sets 12:27:12 0° 179° (S) 4,908 11.2 33.1°
